Location: ????????
(38.5011°N, 22.9267°E)
Time: 05:00:09
(UTC+00:00)

Daily predictions for brighter satellites

Satellite Brightness Start Highest point End
(mag) Time Altitude Azimuth Time Altitude Azimuth Time Altitude Azimuth
ADEOS II 3.6 00:02:43 10° NNE 00:06:31 31° ENE 00:06:31 31° ENE
Cosmos 1943 Rocket 3.0 00:06:09 10° NNW 00:10:24 47° N 00:10:24 47° N
SL-16 R/B 3.3 00:13:06 39° E 00:13:06 39° E 00:17:26 10° NE
ATLAS 5 CENTAUR R/B 3.7 00:11:16 10° NNW 00:15:51 32° NE 00:21:21 10° ESE
Meteor 1-27 Rocket 4.3 00:18:37 54° NNE 00:18:37 54° NNE 00:22:54 10° N
CZ-2C R/B 3.4 00:18:46 47° ENE 00:18:46 47° ENE 00:23:38 10° N
SL-16 R/B 3.9 00:15:21 18° ESE 00:19:01 34° ENE 00:24:30 10° N
NPP 4.2 00:26:34 10° N 00:30:40 52° N 00:30:40 52° N
ALOS 3.9 00:28:19 10° NE 00:31:58 27° E 00:31:58 27° E
USA 215 3.6 00:27:03 10° NE 00:33:20 52° NW 00:34:07 49° WNW
Cosmos 2344 4.2 00:25:26 10° NW 00:34:28 79° WSW 00:47:19 10° SSE
BREEZE-M DEB (TANK) 4.0 00:41:45 70° NE 00:41:45 70° NE 00:50:52 10° NE
ATLAS 3B R/B 4.4 00:42:36 10° NNW 00:49:43 36° NE 00:56:45 10° ESE
Cosmos 2026 Rocket 4.0 00:53:06 69° W 00:53:06 69° W 00:59:26 10° N
MSX 4.1 00:50:22 10° N 00:55:32 52° NW 00:55:32 52° NW
Cosmos 1092 Rocket 4.0 00:58:02 62° WNW 00:58:02 62° WNW 01:03:58 10° N
Cosmos 2237 Rocket 3.7 00:59:39 24° NW 00:59:39 24° NW 01:03:54 10° N
Cosmos 1371 Rocket 4.2 00:55:15 10° NNW 00:59:42 64° NNW 00:59:42 64° NNW
Cosmos 1328 Rocket 4.0 01:04:12 60° NNE 01:04:12 60° NNE 01:07:52 10° N
Cosmos 2369 Rocket 3.7 00:59:38 10° N 01:04:42 34° ENE 01:09:44 10° SE
IDEFIX/ARIANE 42P 3.6 01:00:08 10° N 01:03:55 32° NW 01:03:55 32° NW
USA 267 3.6 00:58:51 10° ESE 01:05:14 63° NE 01:11:40 10° NW
Cosmos 1626 3.9 01:09:30 26° NNE 01:09:30 26° NNE 01:11:06 10° NNE
ISS -1.1 01:11:17 15° E 01:11:17 15° E 01:12:22 10° E
Cosmos 921 Rocket 4.2 01:11:48 33° NNW 01:11:48 33° NNW 01:14:40 10° N
CZ-2D R/B 2.8 01:05:43 10° N 01:10:23 41° WNW 01:10:23 41° WNW
CZ-2C R/B 3.1 01:05:27 10° N 01:10:48 67° WNW 01:10:56 67° W
Cosmos 2297 4.3 01:07:41 10° NNW 01:13:21 55° ENE 01:18:57 10° SE
Cosmos 1975 4.1 01:13:02 10° N 01:15:11 31° NNW 01:15:11 31° NNW
AQUA 4.0 01:13:40 10° N 01:17:56 58° NW 01:17:56 58° NW
Cosmos 1633 Rocket 3.1 01:14:02 10° N 01:18:04 75° N 01:18:04 75° N
Cosmos 494 Rocket 3.9 01:22:01 64° W 01:22:11 64° WNW 01:27:17 10° NNE
Meteor 2-4 Rocket 3.7 01:22:13 58° W 01:22:31 59° WNW 01:28:04 10° N
Resurs 1-4 Rocket 3.2 01:18:04 10° N 01:22:17 30° WNW 01:22:17 30° WNW
Cosmos 1943 3.8 01:21:56 33° SSE 01:24:07 51° ESE 01:29:37 10° NNE
Cosmos 1048 Rocket 3.9 01:29:21 61° SW 01:30:12 76° WNW 01:35:28 10° NNE
Cosmos 1766 3.6 01:28:33 10° N 01:32:12 57° E 01:32:42 51° ESE
FENGYUN 3A 4.0 01:27:07 10° N 01:32:16 46° WNW 01:32:49 45° W
UNK 3.6 01:32:03 48° SSE 01:33:20 90° NW 01:37:57 10° NNW
Meteor 2-12 Rocket 4.3 01:32:14 46° SSW 01:34:03 72° W 01:40:08 10° N
Delta 2 Rocket 3.7 01:35:05 61° SSW 01:35:29 64° S 01:40:27 10° E
EO 1 Delta rocket 3.9 01:34:12 10° N 01:38:52 67° WNW 01:40:07 49° SW
SEDSat Delta rocket 4.1 01:42:01 39° SSW 01:42:52 42° S 01:48:42 10° ESE
CZ-2C R/B 3.2 01:39:25 10° NNE 01:44:26 51° E 01:48:12 17° S
Cosmos 468 4.4 01:43:09 46° SSW 01:44:45 78° WNW 01:50:01 10° NNE
Cosmos 1417 Rocket 4.5 01:40:03 10° N 01:46:27 88° E 01:52:49 10° S
ADEOS II 3.1 01:42:26 10° N 01:46:54 29° WNW 01:47:24 28° WNW
Cosmos 2266 Rocket 3.8 01:47:39 25° S 01:51:19 86° W 01:57:22 10° N
USA 306 2.9 01:51:38 47° S 01:52:13 53° SE 01:55:47 10° NE
ATLAS 2AS CENTAUR R/B 4.0 01:49:36 21° W 01:52:59 29° NW 01:59:06 10° NNE
Cosmos 1707 3.0 01:52:47 32° SSE 01:54:16 61° E 01:57:54 10° NNE
Cosmos 1943 Rocket 4.3 01:51:28 10° WNW 01:51:51 11° WNW 01:51:51 11° WNW
IRS-1D 4.1 01:50:29 10° NNE 01:55:35 57° E 02:00:21 12° S
SL-08 ROCKET BODY 4.3 01:51:35 21° S 01:55:46 89° E 02:01:51 10° N
Cosmos 1603 4.1 01:52:14 21° S 01:55:57 60° ESE 02:01:30 10° NNE
SL-16 R/B 3.4 01:54:58 24° W 01:56:21 26° WNW 02:01:05 10° N
CZ-4 R/B 3.7 01:53:06 10° N 01:57:46 73° WNW 01:59:42 35° SSW
Cosmos 1110 Rocket 4.0 01:52:56 10° NNW 01:58:15 88° ENE 02:03:34 10° SSE
Cosmos 1842 3.0 01:57:28 50° SSW 01:58:22 80° W 02:02:07 10° N
CZ-2C R/B 4.2 02:00:14 19° WNW 02:00:14 19° WNW 02:02:52 10° NW
Lacrosse 5 rocket 4.1 01:58:38 10° SE 01:59:40 11° ESE 02:00:41 10° ESE
ATLAS 5 CENTAUR R/B 2.6 01:54:46 10° NW 01:59:55 43° WSW 02:06:06 10° S
S3M 3.9 01:53:46 10° N 02:00:00 87° W 02:06:18 10° S
GEOS 3 Rocket 3.8 01:55:16 10° SSE 02:00:23 47° WSW 02:05:31 10° NW
SL-16 R/B 3.0 02:00:25 30° SW 02:02:28 37° W 02:08:11 10° NNW
Cosmos 1515 Rocket 3.9 02:03:19 38° WSW 02:04:23 46° W 02:08:40 10° N
ATLAS 5 CENTAUR R/B 4.2 02:02:36 22° SW 02:06:21 25° SSW 02:12:16 10° SSE
Cosmos 1452 Rocket 3.4 02:01:20 10° NNW 02:06:35 75° WSW 02:11:47 10° S
YAOGAN 6 2.4 02:04:38 10° NNE 02:07:57 75° ESE 02:09:29 29° S
ALOS 3.3 02:05:27 10° NNW 02:09:22 28° WNW 02:10:18 26° W
Envisat 3.0 02:07:28 10° N 02:12:29 63° WNW 02:15:42 22° SSW
Cosmos 1869 Rocket 4.2 02:08:18 10° N 02:12:34 57° E 02:16:47 10° SSE
Cosmos 1470 Rocket 4.2 02:09:41 10° NNW 02:13:44 36° W 02:15:02 29° SW
NOSS 3-1 (A) 4.1 02:08:24 10° NW 02:16:11 79° WSW 02:25:22 10° SSE
Meteor 1-13 Rocket 4.2 02:17:10 10° S 02:22:54 84° W 02:28:49 10° N
Cosmos 1331 Rocket 4.0 02:18:20 10° NNW 02:23:32 59° WSW 02:28:40 10° S
Cosmos 2228 Rocket 4.2 02:19:30 10° SSE 02:23:41 44° E 02:27:52 10° NNE
METEOR-M 4.5 02:22:07 10° N 02:27:12 46° WNW 02:30:56 18° SW
Cosmos 1674 3.5 02:28:15 24° W 02:28:52 26° WNW 02:31:49 10° NNW
Orbus 7S? 2.8 02:31:03 23° SW 02:32:55 67° NW 02:35:35 10° NE
DMSP B5D2-2 4.0 02:28:06 10° SSE 02:33:18 86° WSW 02:38:32 10° NNW
Cosmos 1655 Rocket 4.2 02:30:23 10° SSW 02:36:20 53° W 02:42:26 10° N
CRYOSAT 2 4.5 02:33:01 10° N 02:37:47 57° W 02:42:32 10° SSW
Cosmos 1908 3.0 02:36:27 10° NNW 02:40:02 66° W 02:43:36 10° S
Cosmos 1933 Rocket 4.1 02:36:37 10° NNW 02:40:34 35° W 02:44:29 10° SSW
ATLAS 3B R/B 3.0 02:33:13 10° NW 02:40:51 57° WSW 02:48:16 10° SSE
Cosmos 1733 Rocket 4.4 02:38:56 10° N 02:43:03 42° E 02:47:07 10° SSE
Cosmos 1862 Rocket 4.5 02:39:04 10° SSE 02:43:18 50° E 02:47:31 10° NNE
USA 305 1.3 02:44:21 31° WNW 02:44:35 34° NW 02:46:17 10° NNE
Cosmos 1470 3.3 02:41:17 10° NNW 02:44:43 34° W 02:48:08 10° SSW
Cosmos 2315 Rocket 4.1 02:39:34 10° NNW 02:45:36 56° W 02:51:38 10° SSW
ISS -3.0 02:44:09 17° W 02:46:22 40° NNW 02:49:33 10° NE
USA 267 3.8 02:42:39 10° S 02:48:26 34° SW 02:54:16 10° WNW
Cosmos 2369 Rocket 2.9 02:43:46 10° NW 02:48:35 31° WSW 02:53:23 10° SSW
USA 276 1.8 02:51:25 16° WSW 02:53:28 74° NNW 02:56:21 10° NE
Cosmos 614 Rocket 4.0 02:49:26 10° SSW 02:54:27 61° WNW 02:59:34 10° NNE
Cosmos 1300 3.9 02:51:57 10° N 02:55:24 44° E 02:58:49 10° SSE
Cosmos 1441 Rocket 3.7 02:54:40 10° N 02:58:22 61° E 03:02:00 10° SSE
Cosmos 1269 Rocket 4.1 02:56:51 10° SSW 03:02:08 83° ESE 03:07:25 10° NNE
Cosmos 44 3.4 02:58:46 10° NNW 03:03:39 79° ENE 03:08:12 10° SE
Cosmos 1707 Rocket 3.6 03:08:40 10° SSW 03:12:53 56° W 03:17:09 10° N
Delta 2 Rocket 4.2 03:11:32 10° W 03:16:21 46° SSW 03:21:01 10° ESE
